Find OneWeb SL0549

NORAD ID: 56051 Int'l Des: 2023-043 Owner: ONEWEBN Country: UK Constellation: oneweb operational
LEOCIRCULARPOLARONEWEB_TYPE

リアルタイム位置

3D地球を読み込み中...

OneWeb SL0549について

説明を読み込み中...

次回通過

Passes for default location (London). Set your location on the main map for personalized predictions.

高度履歴

Loading altitude history...

軌道要素

1 56051U 23043F 26124.33831344 .00000036 00000-0 54545-4 0 9999
2 56051 87.9227 252.7096 0001678 95.5293 264.6032 13.21828539152430
Epoch: May 4, 2026 • Age: 9 hours

現在のステータス

高度 1188.0 km
速度 7.26 km/s
衛星直下点 -25.86°S, 132.94°E
打ち上げ日 Mar 26, 2023
運用期間 3.1 years
タイプ internet

技術仕様

分類 Payload
質量 148.00 kg
乾燥質量 140.00 kg
総質量 148.00 kg
長さ 1.30 m
直径 1.00 m
スパン 5.00 m
形状 Trapezoid+2 pan
製造者 ONEWUS
バスタイプ ARROW
フェーズステータス In Orbit
所有者/国 ONEWEBN/UK

Most Searched